O3B FM15

Last updated on Thu Dec 28 2023 00:03:05 GMT+0000 (Greenwich Mean Time)

1 43231U 18024A 23361.38643817 -.00000023 00000+0 00000+0 0 9997 2 43231 0.0458 359.3756 0002679 274.6072 85.9850 5.00114682105864
UTC large
Height (km)
Speed (km/s)
/
Latitude / Longitude
Inclination (degrees)
Orbital Period (minutes)
Azimuth
Elevation
Range (km)
Doppler Factor

Next 0 passes for location: London (51.5072 / 0.1276)

Sorry there are no passes over London.